Content
SEND FEEDBACK

Daily
Averages
Monthly
Summary
United States of America

ST. LOUIS, MISSOURI


Home > North America > United States > Missouri
Elevation: 535 feet     Latitude: 38 45N     Longitude: 090 22W

WEATHER
 
SELECT A DAY
Number of Records: 196,674;   Date Range: 1/1/95 - 9/21/14
 
SHARE

PRINT THIS DATA

[ ← Previous Day ]
WEATHER ALMANAC - FEBRUARY 7, 2013
[ Next Day → ]
[ °C ]   °F
Weather ElementAverageHighLow
Temperature43.8 °F48.9 °F (12:54 pm)32 °F (1:54 am)
Dewpoint38.5 °F45 °F (4:54 pm)27 °F (1:54 am)
Humidity81.9 %93 % (4:10 pm)65 % (3:54 am)
Barometer29.95 in30.08 in (11:54 pm)29.87 in (4:10 pm)
Wind Speed3.4 mph15 mph (9:54 pm)
Wind Gust23 mph (9:54 pm)
Weather ElementAverage
Visibility7.5 mi
Wind DirectionESE (108.7 °)

Weather ElementTotal
Precipitation0.15 in
Heating Degree Days24.6 (Base 65)
Averaged from 30 records on February 7, 2013
WEATHER CONDITIONS BREAKOUT
WIND DIRECTION BREAKOUT
WEATHER BY HOUR - FEBRUARY 7, 2013
[ °C ]   °F
Local TimeTemperatureDewpointHumidityBarometerVisibilityWind DirectionWind SpeedGust SpeedPrecipitationEventsConditions
1:54 AM32.0 °F27.0 °F82 %30.04 in10.0 miCalmScattered Clouds
2:54 AM36.0 °F30.0 °F79 %30.03 in10.0 miCalmMostly Cloudy
3:54 AM39.9 °F28.9 °F65 %30.00 in10.0 miEast (100°)3.5 mphScattered Clouds
4:54 AM37.0 °F30.0 °F76 %30.00 in10.0 miSSW (210°)3.5 mphOvercast
5:54 AM39.0 °F30.0 °F70 %29.99 in10.0 miEast (90°)4.6 mphOvercast
6:54 AM39.0 °F33.1 °F79 %29.98 in6.0 miEast (80°)3.5 mph0.01 inRainLight Rain
7:54 AM39.9 °F33.1 °F77 %29.97 in10.0 miCalm0.00 inOvercast
8:54 AM43.0 °F33.1 °F68 %29.97 in10.0 miCalmOvercast
9:54 AM44.1 °F36.0 °F73 %29.96 in7.0 miCalm0.00 inRainLight Rain
10:54 AM45.0 °F37.9 °F76 %29.96 in10.0 miCalm0.00 inOvercast
11:54 AM46.9 °F37.9 °F71 %29.92 in10.0 miCalmOvercast
12:54 PM48.9 °F39.9 °F71 %29.89 in10.0 miCalmOvercast
1:51 PM48.2 °F39.2 °F71 %29.88 in8.0 miWNW (300°)3.5 mph0.01 inRainLight Rain
1:54 PM48.0 °F39.9 °F74 %29.90 in8.0 miCalm0.01 inRainLight Rain
2:54 PM46.9 °F43.0 °F86 %29.89 in4.0 miCalm0.06 inRainRain
3:54 PM46.9 °F44.1 °F90 %29.88 in7.0 miCalm0.03 inRainLight Rain
4:10 PM46.4 °F44.6 °F93 %29.87 in4.0 miCalm0.00 inRainLight Rain
4:44 PM46.4 °F44.6 °F93 %29.88 in4.0 miCalm0.01 inRainLight Rain
4:52 PM46.4 °F44.6 °F93 %29.88 in4.0 miCalm0.01 inRainLight Rain
4:54 PM46.9 °F45.0 °F93 %29.90 in4.0 miCalm0.01 inRainLight Rain
4:56 PM46.4 °F44.6 °F93 %29.88 in2.5 miCalm0.00 inRainLight Rain
5:03 PM46.4 °F44.6 °F93 %29.89 in3.0 miCalm0.00 inRainLight Rain
5:54 PM48.0 °F45.0 °F89 %29.93 in3.0 miWNW (300°)8.1 mph0.00 inOvercast
5:59 PM48.2 °F44.6 °F87 %29.91 in8.0 miWNW (290°)9.2 mphOvercast
6:54 PM46.9 °F44.1 °F90 %29.95 in10.0 miWNW (300°)6.9 mphOvercast
7:54 PM45.0 °F41.0 °F86 %29.98 in10.0 miNW (320°)13.8 mph20.7 mphOvercast
8:54 PM44.1 °F39.9 °F85 %30.01 in10.0 miNNW (330°)11.5 mph21.9 mphOvercast
9:54 PM42.1 °F37.9 °F85 %30.03 in9.0 miNW (320°)15.0 mph23.0 mphOvercast
10:54 PM41.0 °F36.0 °F82 %30.05 in9.0 miNW (310°)10.4 mphOvercast
11:54 PM39.0 °F35.1 °F86 %30.08 in5.0 miNW (310°)9.2 mphOvercast
Hourly data recorded from KSUS, located miles away from St. Louis, Missouri







STORIES FROM OUR PARTNERS